[[{"header":{"parameterUnit":"m.s-1","parameterCategory":2,"la1":30.2992,"la2":30.254,"lo1":-89.0895,"lo2":-89.0443,"dy":0.0025,"dx":0.0025,"nx":19,"ny":19,"refTime":"2026-04-25T21:00:00:Z","depth":"0","parameterNumber":2,"parameterNumberName":"U-component_of_CURRENTS"},"data":[0,0,0,-0.02,-0.0199,-0.0158,-0.0158,-0.0108,-0.0107,0,0,0,0,0,0,0,0,0,0,0,-0.0215,-0.0215,-0.02,-0.0199,-0.0158,-0.0158,-0.0108,-0.0107,0,0,0,0,0,0,0,0,0,0,0,-0.0215,-0.0215,-0.0214,-0.0199,-0.0158,-0.0158,-0.0108,-0.0137,0,0,0,0,0,0,0,0,0,0,-0.0177,-0.0201,-0.0215,-0.0214,-0.0199,-0.0158,-0.0158,-0.0139,-0.0136,-0.0128,0,-0.0123,0,-0.0114,-0.0104,-0.0104,0,0,0,-0.0196,-0.0203,-0.0183,-0.0214,-0.0198,-0.0158,-0.0176,-0.0137,-0.0133,-0.0123,-0.0122,-0.012,-0.0114,-0.0104,-0.0104,-0.0069,-0.0069,0,0,-0.0198,-0.0215,-0.0186,-0.0181,-0.019,-0.0177,-0.0174,-0.0135,-0.0137,-0.0122,-0.0119,-0.0113,-0.0104,-0.0103,-0.0069,-0.0069,0,0,0,-0.0207,-0.0217,-0.0198,-0.0183,-0.0176,-0.0176,-0.0173,-0.0139,-0.013,-0.0118,-0.0112,-0.0103,-0.0103,-0.0069,-0.0069,-0.0125,0,0,0,-0.0208,-0.0222,-0.0199,-0.0209,-0.0177,-0.0159,-0.0179,-0.0133,-0.0128,-0.0112,-0.0103,-0.0102,-0.0069,-0.0069,-0.0123,-0.0134,0,0,0,-0.0216,-0.0223,-0.0216,-0.021,-0.0193,-0.0159,-0.0149,-0.0132,-0.0125,-0.0104,-0.0102,-0.0069,-0.0069,-0.0122,-0.0132,-0.0149,0,0,0,-0.0236,-0.0232,-0.0217,-0.0209,-0.0193,-0.0174,-0.0149,-0.0135,-0.012,-0.0103,-0.0069,-0.0069,-0.0122,-0.0131,-0.0148,-0.0175,-0.0183,0,0,-0.024,-0.0233,-0.0226,-0.0211,-0.0202,-0.018,-0.0174,-0.0144,-0.0115,-0.0082,-0.0081,-0.0124,-0.0132,-0.0149,-0.017,-0.0178,0,0,0,-0.0233,-0.0232,-0.0225,-0.0215,-0.0197,-0.0194,-0.0166,-0.0153,-0.0129,-0.0105,-0.0106,-0.0109,-0.0118,-0.0131,-0.0138,-0.0129,-0.0069,-0.0069,-0.0069,-0.028,-0.0255,-0.0251,-0.0227,-0.0219,-0.0202,-0.0198,-0.0173,-0.0147,-0.0144,-0.0142,-0.0174,-0.0188,-0.0193,-0.0184,-0.0135,-0.0135,-0.0135,-0.0135,-0.0294,-0.0288,-0.0269,-0.0254,-0.0247,-0.0243,-0.0226,-0.0215,-0.0201,-0.0172,-0.0179,-0.0174,-0.0204,-0.0191,-0.0138,-0.0138,-0.0137,-0.0137,-0.0137,-0.0323,-0.0315,-0.0302,-0.0286,-0.029,-0.0275,-0.0281,-0.0264,-0.0241,-0.0249,-0.0245,-0.0244,-0.0242,-0.0251,-0.0251,-0.0251,-0.0251,-0.0251,-0.0251,-0.0358,-0.0341,-0.0335,-0.0323,-0.0321,-0.0327,-0.0316,-0.0319,-0.0313,-0.0291,-0.0291,-0.0249,-0.0208,-0.0215,-0.0253,-0.0253,-0.0253,-0.0253,-0.0252,-0.038,-0.037,-0.0361,-0.0355,-0.0357,-0.0362,-0.0365,-0.0383,-0.0381,-0.0388,-0.0333,-0.0314,-0.0294,-0.0289,-0.0296,-0.0353,-0.0353,-0.0353,-0.0353,-0.0401,-0.0393,-0.0376,-0.037,-0.0376,-0.0378,-0.0402,-0.0421,-0.041,-0.0389,-0.0369,-0.0356,-0.0352,-0.0334,-0.0327,-0.0334,-0.0399,-0.0399,-0.0399,-0.0415,-0.0402,-0.0394,-0.038,-0.0377,-0.0392,-0.0406,-0.0445,-0.0432,-0.0398,-0.0353,-0.0352,-0.0326,-0.0321,-0.0286,-0.0277,-0.0285,0,0]},{"header":{"parameterUnit":"m.s-1","parameterCategory":2,"la1":30.2992,"la2":30.254,"lo1":-89.0895,"lo2":-89.0443,"dy":0.0025,"dx":0.0025,"nx":19,"ny":19,"refTime":"2026-04-25T21:00:00:Z","depth":"0","parameterNumber":3,"parameterNumberName":"V-component_of_CURRENTS"},"data":[0,0,0,0.112,0.1122,0.1153,0.1152,0.1056,0.1055,0,0,0,0,0,0,0,0,0,0,0,0.1088,0.1088,0.112,0.1122,0.1153,0.1152,0.1057,0.1055,0,0,0,0,0,0,0,0,0,0,0,0.1088,0.1088,0.1089,0.1122,0.1153,0.1152,0.1057,0.1061,0,0,0,0,0,0,0,0,0,0,0.1045,0.1036,0.1088,0.1089,0.1123,0.1153,0.1152,0.1062,0.106,0.1012,0,0.1024,0,0.1056,0.1048,0.1048,0,0,0,0.1095,0.1037,0.1063,0.1089,0.1123,0.1153,0.1131,0.1062,0.106,0.1009,0.1023,0.1021,0.1054,0.1048,0.1047,0.0975,0.0975,0,0,0.1093,0.1071,0.1065,0.1062,0.1138,0.113,0.1132,0.1062,0.1048,0.1023,0.102,0.1053,0.1047,0.1046,0.0975,0.0975,0,0,0,0.1107,0.107,0.1099,0.1064,0.1092,0.1132,0.1134,0.1051,0.1066,0.102,0.1052,0.1046,0.1045,0.0975,0.0975,0.0947,0,0,0,0.1104,0.108,0.1098,0.1082,0.1094,0.109,0.1124,0.107,0.1065,0.1052,0.1046,0.1044,0.0975,0.0975,0.0948,0.0942,0,0,0,0.1086,0.1078,0.1088,0.1082,0.1113,0.1093,0.1102,0.107,0.1085,0.1048,0.1044,0.0975,0.0975,0.0949,0.0944,0.0908,0,0,0,0.1052,0.1052,0.1087,0.109,0.1113,0.1105,0.1104,0.108,0.1048,0.1046,0.0975,0.0975,0.0949,0.0944,0.0909,0.0842,0.0831,0,0,0.1034,0.1048,0.1052,0.1086,0.1085,0.1099,0.1067,0.1031,0.1032,0.0984,0.0983,0.0948,0.0944,0.0908,0.0842,0.0831,0,0,0,0.1034,0.1036,0.1039,0.1052,0.106,0.1048,0.1027,0.1018,0.0991,0.1022,0.0956,0.0954,0.0932,0.0895,0.0886,0.086,0.0975,0.0975,0.0975,0.0951,0.0986,0.0981,0.1011,0.0999,0.0998,0.0978,0.0964,0.0957,0.0952,0.0937,0.0901,0.0861,0.0854,0.0827,0.094,0.094,0.094,0.094,0.0914,0.0923,0.0943,0.0957,0.0958,0.0929,0.0913,0.0917,0.089,0.0914,0.0894,0.0875,0.0842,0.0818,0.0938,0.0938,0.0939,0.0939,0.0939,0.0868,0.0881,0.0894,0.09,0.0888,0.0888,0.0858,0.0869,0.0865,0.0855,0.0807,0.0807,0.0779,0.0842,0.0842,0.0842,0.0841,0.0841,0.0841,0.082,0.0836,0.0831,0.084,0.0832,0.082,0.0826,0.0809,0.0784,0.0776,0.0775,0.0761,0.0871,0.0867,0.0838,0.0839,0.0839,0.0839,0.084,0.0794,0.079,0.0771,0.0764,0.0748,0.0692,0.0727,0.068,0.068,0.0638,0.0635,0.0723,0.0722,0.0729,0.0722,0.0658,0.0658,0.0658,0.0658,0.0766,0.0766,0.0724,0.0686,0.0658,0.0629,0.0552,0.0533,0.0521,0.0505,0.0546,0.0552,0.0561,0.0553,0.0563,0.0554,0.0449,0.0448,0.0448,0.0745,0.0727,0.0687,0.0647,0.0608,0.0549,0.0442,0.0357,0.0363,0.0441,0.0522,0.053,0.0544,0.056,0.0554,0.0571,0.056,0,0]}],[{"header":{"parameterUnit":"m.s-1","parameterCategory":2,"la1":30.2992,"la2":30.254,"lo1":-89.0895,"lo2":-89.0443,"dy":0.0025,"dx":0.0025,"nx":19,"ny":19,"refTime":"2026-04-25T21:00:00:Z","depth":"2","parameterNumber":2,"parameterNumberName":"U-component_of_CURRENTS"},"data":[0,0,0,0.0217,0.0216,0.0168,0.0168,0.0126,0.0126,0,0,0,0,0,0,0,0,0,0,0,0.0236,0.0236,0.0217,0.0215,0.0168,0.0168,0.0126,0.0126,0,0,0,0,0,0,0,0,0,0,0,0.0236,0.0236,0.0235,0.0215,0.0168,0.0168,0.0126,0.0158,0,0,0,0,0,0,0,0,0,0,0.0202,0.0223,0.0236,0.0235,0.0215,0.0168,0.0168,0.0159,0.0156,0.0152,0,0.0143,0,0.0131,0.0123,0.0123,0,0,0,0.0218,0.0226,0.0205,0.0235,0.0215,0.0168,0.019,0.0157,0.0154,0.0148,0.0142,0.0141,0.013,0.0123,0.0123,0.0096,0.0096,0,0,0.0221,0.0235,0.0207,0.0202,0.02,0.0192,0.0189,0.0155,0.0156,0.0142,0.0139,0.013,0.0123,0.0122,0.0096,0.0096,0,0,0,0.0226,0.0237,0.0217,0.0204,0.0193,0.019,0.0187,0.0157,0.0148,0.0139,0.0129,0.0123,0.0122,0.0096,0.0096,0.0125,0,0,0,0.0228,0.024,0.0218,0.0227,0.0193,0.0173,0.019,0.015,0.0146,0.0129,0.0123,0.0122,0.0096,0.0096,0.0124,0.0135,0,0,0,0.0238,0.0241,0.0233,0.0228,0.0205,0.0173,0.0163,0.0149,0.014,0.0123,0.0122,0.0096,0.0096,0.0124,0.0134,0.0147,0,0,0,0.0258,0.0247,0.0234,0.0223,0.0205,0.0182,0.0163,0.0147,0.0135,0.0122,0.0096,0.0096,0.0123,0.0133,0.0146,0.01,0.0101,0,0,0.0255,0.0248,0.0241,0.0227,0.0211,0.0189,0.0179,0.0154,0.0133,0.0109,0.0108,0.0125,0.0134,0.0147,0.01,0.01,0,0,0,0.0247,0.024,0.0233,0.0221,0.0203,0.0194,0.0168,0.0159,0.0138,0.0124,0.0116,0.012,0.0128,0.0098,0.0099,0.0096,0.0096,0.0096,0.0096,0.0245,0.024,0.0234,0.0223,0.0215,0.0196,0.0191,0.0172,0.0149,0.0145,0.0138,0.0159,0.0127,0.0127,0.0132,0.0132,0.0132,0.0132,0.0132,0.0236,0.0228,0.0236,0.0226,0.0223,0.0215,0.0205,0.0194,0.0182,0.016,0.0166,0.0123,0.0129,0.0135,0.0134,0.0134,0.0134,0.0133,0.0133,0.0225,0.0223,0.0223,0.0224,0.0227,0.022,0.022,0.0212,0.0204,0.0209,0.0164,0.0163,0.0181,0.0207,0.0207,0.0207,0.0207,0.0207,0.0207,0.0207,0.0213,0.021,0.0216,0.0218,0.0221,0.0222,0.0221,0.0205,0.0188,0.0187,0.0184,0.0182,0.0185,0.0209,0.0209,0.0209,0.0208,0.0208,0.0179,0.0186,0.0184,0.0186,0.0196,0.0181,0.0198,0.0175,0.0186,0.0172,0.0176,0.0176,0.0161,0.016,0.0162,0.0178,0.0178,0.0178,0.0178,0.0158,0.0163,0.0156,0.0159,0.0165,0.0161,0.009,0.0044,0.0065,0.006,0.0065,0.0031,0.0035,0.0011,0.0013,0.0011,-0.0011,-0.0012,-0.0012,0.0138,0.0143,0.0129,0.0139,0.0147,0.0121,0.0004,-0.0139,-0.0131,-0.0021,0.0018,0.0168,0.0131,0.0133,0.0105,0.0105,0.0105,0,0]},{"header":{"parameterUnit":"m.s-1","parameterCategory":2,"la1":30.2992,"la2":30.254,"lo1":-89.0895,"lo2":-89.0443,"dy":0.0025,"dx":0.0025,"nx":19,"ny":19,"refTime":"2026-04-25T21:00:00:Z","depth":"2","parameterNumber":3,"parameterNumberName":"V-component_of_CURRENTS"},"data":[0,0,0,-0.0339,-0.0339,-0.0349,-0.0349,-0.038,-0.0381,0,0,0,0,0,0,0,0,0,0,0,-0.0338,-0.0338,-0.0339,-0.0339,-0.0349,-0.0349,-0.038,-0.0381,0,0,0,0,0,0,0,0,0,0,0,-0.0338,-0.0338,-0.0338,-0.0339,-0.0349,-0.0349,-0.038,-0.0369,0,0,0,0,0,0,0,0,0,0,-0.0358,-0.0353,-0.0338,-0.0338,-0.0339,-0.0349,-0.0349,-0.0369,-0.037,-0.0381,0,-0.038,0,-0.0379,-0.0383,-0.0383,0,0,0,-0.0343,-0.0352,-0.0353,-0.0338,-0.0339,-0.0349,-0.0346,-0.0369,-0.0371,-0.0383,-0.0381,-0.0382,-0.038,-0.0383,-0.0383,-0.0423,-0.0424,0,0,-0.0343,-0.0342,-0.0352,-0.0354,-0.034,-0.0345,-0.0346,-0.037,-0.0373,-0.0381,-0.0382,-0.0381,-0.0383,-0.0384,-0.0423,-0.0424,0,0,0,-0.0339,-0.0342,-0.0342,-0.0353,-0.0352,-0.0345,-0.0346,-0.0372,-0.0371,-0.0383,-0.0381,-0.0384,-0.0384,-0.0423,-0.0423,-0.0431,0,0,0,-0.0339,-0.0339,-0.0342,-0.0342,-0.0351,-0.0359,-0.0347,-0.0369,-0.0372,-0.0381,-0.0384,-0.0384,-0.0423,-0.0423,-0.0431,-0.0418,0,0,0,-0.0338,-0.0339,-0.0339,-0.0342,-0.0344,-0.0359,-0.036,-0.037,-0.0371,-0.0383,-0.0384,-0.0423,-0.0423,-0.043,-0.0418,-0.0407,0,0,0,-0.0339,-0.0342,-0.0339,-0.0345,-0.0344,-0.0362,-0.0359,-0.0376,-0.0388,-0.0384,-0.0423,-0.0423,-0.043,-0.0418,-0.0407,-0.0346,-0.0342,0,0,-0.0344,-0.0343,-0.0347,-0.0344,-0.0357,-0.0361,-0.0383,-0.0395,-0.0399,-0.0416,-0.0417,-0.0431,-0.0418,-0.0407,-0.0373,-0.0367,0,0,0,-0.0349,-0.0349,-0.0354,-0.0358,-0.0372,-0.0383,-0.0399,-0.0407,-0.0424,-0.0406,-0.0438,-0.0429,-0.0422,-0.0386,-0.0382,-0.0425,-0.0425,-0.0425,-0.0425,-0.0361,-0.036,-0.0364,-0.0367,-0.0382,-0.0404,-0.0415,-0.0428,-0.0439,-0.0448,-0.0442,-0.0445,-0.0408,-0.0404,-0.0457,-0.0457,-0.0457,-0.0457,-0.0457,-0.0364,-0.0364,-0.0363,-0.0362,-0.0377,-0.0394,-0.0426,-0.0436,-0.0449,-0.0457,-0.0451,-0.0404,-0.0399,-0.0458,-0.0458,-0.0458,-0.0458,-0.0458,-0.0457,-0.0373,-0.037,-0.036,-0.0351,-0.0359,-0.038,-0.0395,-0.0422,-0.044,-0.0443,-0.0395,-0.0394,-0.0433,-0.0441,-0.0441,-0.0441,-0.0441,-0.0441,-0.0441,-0.0383,-0.0373,-0.0355,-0.0342,-0.0334,-0.0344,-0.0376,-0.0381,-0.0379,-0.0386,-0.0385,-0.0439,-0.044,-0.0432,-0.0439,-0.044,-0.044,-0.044,-0.044,-0.0387,-0.038,-0.0355,-0.0338,-0.0318,-0.0334,-0.0344,-0.0331,-0.0326,-0.0307,-0.035,-0.0353,-0.0338,-0.0341,-0.033,-0.0311,-0.0311,-0.0311,-0.0311,-0.0393,-0.0386,-0.0359,-0.0336,-0.0321,-0.0336,-0.034,-0.0303,-0.027,-0.0248,-0.0251,-0.025,-0.0256,-0.0236,-0.0242,-0.023,-0.0184,-0.0184,-0.0184,-0.0389,-0.0384,-0.037,-0.0348,-0.0328,-0.035,-0.0365,-0.031,-0.0206,-0.0182,-0.0261,-0.0296,-0.0302,-0.0308,-0.0286,-0.0292,-0.0275,0,0]}],[{"header":{"parameterUnit":"m.s-1","parameterCategory":2,"la1":30.2992,"la2":30.254,"lo1":-89.0895,"lo2":-89.0443,"dy":0.0025,"dx":0.0025,"nx":19,"ny":19,"refTime":"2026-04-25T21:00:00:Z","depth":"4","parameterNumber":2,"parameterNumberName":"U-component_of_CURRENTS"},"data":[0,0,0,-0.0396,-0.0398,-0.0563,-0.0564,-0.069,-0.069,0,0,0,0,0,0,0,0,0,0,0,-0.0356,-0.0357,-0.0395,-0.0399,-0.0563,-0.0564,-0.069,-0.069,0,0,0,0,0,0,0,0,0,0,0,-0.0355,-0.0356,-0.0358,-0.0399,-0.0563,-0.0564,-0.069,-0.0592,0,0,0,0,0,0,0,0,0,0,-0.0446,-0.0428,-0.0356,-0.0358,-0.04,-0.0563,-0.0564,-0.0589,-0.0598,-0.0583,0,-0.0611,0,-0.0633,-0.0695,-0.0695,0,0,0,-0.0424,-0.0421,-0.0441,-0.0358,-0.0401,-0.0562,-0.0496,-0.0595,-0.0606,-0.0595,-0.0613,-0.0618,-0.0635,-0.0695,-0.0695,-0.0767,-0.0767,0,0,-0.0415,-0.0409,-0.0434,-0.0447,-0.0444,-0.049,-0.0501,-0.0603,-0.0626,-0.0613,-0.0621,-0.0637,-0.0695,-0.0696,-0.0766,-0.0767,0,0,0,-0.0372,-0.0402,-0.0423,-0.0442,-0.0467,-0.0495,-0.0507,-0.0623,-0.0623,-0.0622,-0.0638,-0.0696,-0.0697,-0.0766,-0.0767,-0.0761,0,0,0,-0.0367,-0.0375,-0.0419,-0.042,-0.0466,-0.0561,-0.0524,-0.0617,-0.0629,-0.0638,-0.0696,-0.0697,-0.0766,-0.0766,-0.0761,-0.0717,0,0,0,-0.0348,-0.0373,-0.0387,-0.0419,-0.0474,-0.056,-0.057,-0.0621,-0.0636,-0.0695,-0.0697,-0.0766,-0.0766,-0.076,-0.0718,-0.0668,0,0,0,-0.0342,-0.0363,-0.0388,-0.0421,-0.0472,-0.0533,-0.057,-0.0652,-0.0706,-0.0696,-0.0766,-0.0767,-0.076,-0.0718,-0.0669,-0.0572,0,0,0,-0.0353,-0.0365,-0.0379,-0.0404,-0.0441,-0.0512,-0.057,-0.0667,-0.0707,-0.0729,-0.0733,-0.0761,-0.0718,-0.0668,-0.0619,0,0,0,0,-0.0371,-0.0376,-0.0392,-0.0431,-0.0481,-0.0543,-0.063,-0.0669,-0.0752,-0.0737,-0.0778,-0.075,-0.0719,-0.0668,-0.077,-0.077,-0.077,-0.077,-0.077,-0.0361,-0.0382,-0.0403,-0.0433,-0.0487,-0.0578,-0.0629,-0.0699,-0.0737,-0.0784,-0.0761,-0.0734,-0.0685,-0.0799,-0.0799,-0.0799,-0.0799,-0.0799,-0.0799,-0.0335,-0.0343,-0.0394,-0.0424,-0.0495,-0.0562,-0.064,-0.069,-0.0713,-0.0768,-0.0739,-0.0686,-0.0799,-0.0799,-0.0799,-0.0799,-0.0799,-0.0799,-0.0799,-0.0302,-0.0311,-0.0339,-0.0387,-0.047,-0.0553,-0.0565,-0.064,-0.0688,-0.068,-0.0603,-0.0704,-0.0684,-0.0668,-0.0668,-0.0667,-0.0667,-0.0667,-0.0667,-0.0263,-0.0283,-0.0296,-0.0349,-0.0389,-0.0447,-0.0518,-0.05,-0.0552,-0.0551,-0.066,-0.0688,-0.0692,-0.0676,-0.0661,-0.0662,-0.0662,-0.0663,-0.0663,-0.0224,-0.0242,-0.0235,-0.0257,-0.0307,-0.0331,-0.0381,-0.036,-0.0321,-0.0297,-0.0478,-0.0489,-0.0462,-0.0471,-0.0446,-0.0361,-0.0359,-0.0358,0,-0.0206,-0.0209,-0.0209,-0.0206,-0.02,-0.027,-0.0191,-0.0188,-0.0254,-0.0291,-0.0321,-0.0529,-0.0536,-0.0511,-0.0517,-0.0489,0,0,0,-0.0191,-0.0195,-0.0186,-0.0189,-0.0181,-0.0178,-0.0185,-0.0177,-0.0274,-0.0171,-0.0323,-0.0332,-0.0439,-0.0643,-0.0626,-0.0632,-0.0603,0,0]},{"header":{"parameterUnit":"m.s-1","parameterCategory":2,"la1":30.2992,"la2":30.254,"lo1":-89.0895,"lo2":-89.0443,"dy":0.0025,"dx":0.0025,"nx":19,"ny":19,"refTime":"2026-04-25T21:00:00:Z","depth":"4","parameterNumber":3,"parameterNumberName":"V-component_of_CURRENTS"},"data":[0,0,0,-0.0386,-0.0388,-0.0467,-0.0467,-0.042,-0.042,0,0,0,0,0,0,0,0,0,0,0,-0.0358,-0.0359,-0.0386,-0.0388,-0.0467,-0.0467,-0.042,-0.042,0,0,0,0,0,0,0,0,0,0,0,-0.0358,-0.0359,-0.036,-0.0389,-0.0467,-0.0467,-0.042,-0.0394,0,0,0,0,0,0,0,0,0,0,-0.0335,-0.0351,-0.0359,-0.036,-0.0389,-0.0467,-0.0467,-0.0394,-0.0396,-0.0347,0,-0.0377,0,-0.0401,-0.0414,-0.0414,0,0,0,-0.0373,-0.035,-0.0359,-0.036,-0.039,-0.0467,-0.0427,-0.0396,-0.0397,-0.0348,-0.0377,-0.0376,-0.04,-0.0414,-0.0414,-0.0359,-0.0359,0,0,-0.0369,-0.0376,-0.0359,-0.0361,-0.043,-0.0425,-0.043,-0.0399,-0.0411,-0.0377,-0.0376,-0.0399,-0.0413,-0.0413,-0.0359,-0.0359,0,0,0,-0.0367,-0.0373,-0.0386,-0.0361,-0.039,-0.0427,-0.0433,-0.0413,-0.0415,-0.0375,-0.0399,-0.0413,-0.0412,-0.0359,-0.0359,-0.0336,0,0,0,-0.0363,-0.0373,-0.0385,-0.039,-0.0392,-0.0427,-0.0448,-0.0417,-0.0415,-0.0399,-0.0413,-0.0411,-0.0359,-0.0359,-0.0337,-0.0335,0,0,0,-0.0351,-0.0372,-0.0385,-0.039,-0.043,-0.0429,-0.043,-0.0418,-0.0429,-0.0414,-0.0411,-0.0359,-0.0359,-0.0337,-0.0336,-0.0323,0,0,0,-0.0348,-0.0368,-0.0385,-0.0416,-0.043,-0.0452,-0.0431,-0.0433,-0.0422,-0.0413,-0.0359,-0.0359,-0.0338,-0.0336,-0.0323,-0.0323,0,0,0,-0.036,-0.037,-0.0384,-0.04,-0.0434,-0.0439,-0.0455,-0.0425,-0.0402,-0.0356,-0.0356,-0.0337,-0.0336,-0.0323,-0.0319,0,0,0,0,-0.0377,-0.0386,-0.0399,-0.0433,-0.0453,-0.0464,-0.0454,-0.0432,-0.0383,-0.0401,-0.0342,-0.0342,-0.0334,-0.0337,-0.0358,-0.0358,-0.0358,-0.0358,-0.0358,-0.0392,-0.0403,-0.0426,-0.0441,-0.0462,-0.0471,-0.0458,-0.0425,-0.0389,-0.036,-0.0327,-0.0308,-0.0309,-0.0327,-0.0327,-0.0327,-0.0327,-0.0327,-0.0326,-0.0385,-0.0395,-0.0428,-0.0455,-0.0483,-0.0493,-0.0446,-0.0412,-0.0343,-0.0323,-0.0316,-0.0317,-0.0324,-0.0325,-0.0325,-0.0325,-0.0326,-0.0326,-0.0326,-0.0375,-0.0382,-0.0413,-0.0453,-0.0486,-0.0486,-0.044,-0.0378,-0.0327,-0.0301,-0.0282,-0.0295,-0.0293,-0.0273,-0.0273,-0.0273,-0.0273,-0.0273,-0.0273,-0.0356,-0.0379,-0.0403,-0.0444,-0.0468,-0.046,-0.0409,-0.0372,-0.0311,-0.0264,-0.0275,-0.029,-0.0292,-0.0291,-0.0272,-0.0272,-0.0272,-0.0272,-0.0272,-0.0332,-0.0361,-0.0371,-0.04,-0.0435,-0.0422,-0.039,-0.0338,-0.0294,-0.0268,-0.0254,-0.0255,-0.0264,-0.0267,-0.0265,-0.0238,-0.0238,-0.0238,0,-0.0328,-0.0335,-0.0363,-0.0379,-0.0384,-0.0399,-0.0334,-0.032,-0.0283,-0.0263,-0.0301,-0.0287,-0.0287,-0.0302,-0.0304,-0.0304,0,0,0,-0.0318,-0.0329,-0.0344,-0.0372,-0.0378,-0.0341,-0.0324,-0.0306,-0.0273,-0.0273,-0.0236,-0.0236,-0.0314,-0.0268,-0.0286,-0.0288,-0.0287,0,0]}]]